Time,TemperatureF,DewpointF,PressureIn,WindDirection,WindDirectionDegrees,WindSpeedMPH,WindSpeedGustMPH,Humidity,HourlyPrecipIn,Conditions,Clouds,dailyrainin,SoftwareType,DateUTC
2013-01-13 00:03:00,42.1,42.0,30.09,North,1,0.0,0.0,98,0.00,,,0.04,weatherlink.com 1.10,2013-01-13 05:03:00,
2013-01-13 00:18:00,42.9,42.0,30.09,SSE,165,0.0,1.0,98,0.00,,,0.04,weatherlink.com 1.10,2013-01-13 05:18:00,
2013-01-13 00:33:00,43.2,43.0,30.09,SSE,157,1.0,2.0,98,0.00,,,0.04,weatherlink.com 1.10,2013-01-13 05:33:00,
2013-01-13 00:48:00,44.3,44.0,30.09,SSE,157,3.0,4.0,98,0.00,,,0.04,weatherlink.com 1.10,2013-01-13 05:48:00,
2013-01-13 01:03:00,44.5,44.0,30.10,SE,143,3.0,5.0,98,0.00,,,0.04,weatherlink.com 1.10,2013-01-13 06:03:00,
2013-01-13 01:18:00,44.7,44.0,30.11,South,176,0.0,3.0,98,0.00,,,0.04,weatherlink.com 1.10,2013-01-13 06:18:00,
2013-01-13 01:33:00,44.6,44.0,30.11,SSW,198,1.0,3.0,98,0.00,,,0.04,weatherlink.com 1.10,2013-01-13 06:33:00,
2013-01-13 01:48:00,44.5,44.0,30.11,SE,136,0.0,2.0,98,0.00,,,0.04,weatherlink.com 1.10,2013-01-13 06:48:00,
2013-01-13 02:03:00,43.5,43.0,30.11,SE,129,0.0,1.0,98,0.00,,,0.04,weatherlink.com 1.10,2013-01-13 07:03:00,
2013-01-13 02:18:00,43.7,43.0,30.11,SSW,200,2.0,4.0,98,0.00,,,0.04,weatherlink.com 1.10,2013-01-13 07:18:00,
2013-01-13 02:33:00,43.9,43.0,30.12,SSW,193,0.0,4.0,98,0.00,,,0.04,weatherlink.com 1.10,2013-01-13 07:33:00,
2013-01-13 02:48:00,43.8,43.0,30.11,SW,226,0.0,3.0,98,0.01,,,0.05,weatherlink.com 1.10,2013-01-13 07:48:00,
2013-01-13 03:03:00,43.9,43.0,30.11,SW,214,0.0,1.0,98,0.01,,,0.05,weatherlink.com 1.10,2013-01-13 08:03:00,
2013-01-13 03:18:00,43.9,43.0,30.10,SSE,160,0.0,2.0,98,0.01,,,0.05,weatherlink.com 1.10,2013-01-13 08:18:00,
2013-01-13 03:33:00,43.6,43.0,30.09,SSE,152,2.0,3.0,98,0.01,,,0.05,weatherlink.com 1.10,2013-01-13 08:33:00,
2013-01-13 03:49:00,43.7,43.0,30.09,South,169,1.0,2.0,98,0.00,,,0.05,weatherlink.com 1.10,2013-01-13 08:49:00,
2013-01-13 04:03:00,43.6,43.0,30.10,SSW,201,0.0,2.0,98,0.00,,,0.05,weatherlink.com 1.10,2013-01-13 09:03:00,
2013-01-13 04:18:00,43.6,43.0,30.10,WNW,284,0.0,2.0,98,0.00,,,0.05,weatherlink.com 1.10,2013-01-13 09:18:00,
2013-01-13 04:33:00,43.7,43.0,30.10,SW,224,0.0,2.0,98,0.00,,,0.05,weatherlink.com 1.10,2013-01-13 09:33:00,
2013-01-13 04:48:00,43.8,43.0,30.10,SW,222,0.0,2.0,98,0.00,,,0.05,weatherlink.com 1.10,2013-01-13 09:48:00,
2013-01-13 05:03:00,43.8,43.0,30.09,SW,222,0.0,2.0,98,0.00,,,0.05,weatherlink.com 1.10,2013-01-13 10:03:00,
2013-01-13 05:18:00,43.7,43.0,30.08,SW,221,0.0,3.0,98,0.00,,,0.05,weatherlink.com 1.10,2013-01-13 10:18:00,
2013-01-13 05:33:00,43.7,43.0,30.09,SW,219,0.0,2.0,98,0.00,,,0.05,weatherlink.com 1.10,2013-01-13 10:33:00,
2013-01-13 05:48:00,43.7,43.0,30.08,SSE,149,1.0,2.0,98,0.00,,,0.05,weatherlink.com 1.10,2013-01-13 10:48:00,
2013-01-13 06:04:00,43.6,43.0,30.08,South,181,0.0,2.0,98,0.00,,,0.05,weatherlink.com 1.10,2013-01-13 11:04:00,
2013-01-13 06:18:00,43.7,43.0,30.08,SSW,210,0.0,2.0,98,0.00,,,0.00,weatherlink.com 1.10,2013-01-13 11:18:00,
2013-01-13 06:33:00,43.7,43.0,30.09,SE,131,0.0,3.0,98,0.01,,,0.01,weatherlink.com 1.10,2013-01-13 11:33:00,
2013-01-13 06:48:00,43.9,43.0,30.10,SSW,197,1.0,4.0,98,0.01,,,0.01,weatherlink.com 1.10,2013-01-13 11:48:00,
2013-01-13 07:03:00,43.9,43.0,30.09,South,169,1.0,6.0,98,0.01,,,0.01,weatherlink.com 1.10,2013-01-13 12:03:00,
2013-01-13 07:18:00,44.0,44.0,30.10,SSE,156,0.0,4.0,98,0.01,,,0.01,weatherlink.com 1.10,2013-01-13 12:18:00,
2013-01-13 07:33:00,44.3,44.0,30.11,SSE,162,0.0,3.0,98,0.00,,,0.01,weatherlink.com 1.10,2013-01-13 12:33:00,
2013-01-13 07:48:00,44.5,44.0,30.12,South,184,2.0,3.0,98,0.00,,,0.01,weatherlink.com 1.10,2013-01-13 12:48:00,
2013-01-13 08:03:00,44.6,44.0,30.12,SW,224,2.0,4.0,98,0.00,,,0.01,weatherlink.com 1.10,2013-01-13 13:03:00,
2013-01-13 08:18:00,44.8,44.0,30.12,SSW,211,0.0,3.0,98,0.00,,,0.01,weatherlink.com 1.10,2013-01-13 13:18:00,
2013-01-13 08:33:00,45.2,45.0,30.12,SW,229,2.0,3.0,98,0.01,,,0.02,weatherlink.com 1.10,2013-01-13 13:33:00,
2013-01-13 08:48:00,45.5,45.0,30.13,WSW,256,1.0,5.0,98,0.01,,,0.02,weatherlink.com 1.10,2013-01-13 13:48:00,
2013-01-13 09:03:00,45.7,45.0,30.12,SSW,193,1.0,6.0,98,0.01,,,0.02,weatherlink.com 1.10,2013-01-13 14:03:00,
2013-01-13 09:18:00,46.2,46.0,30.13,SW,226,3.0,5.0,98,0.01,,,0.02,weatherlink.com 1.10,2013-01-13 14:18:00,
2013-01-13 09:34:00,46.7,46.0,30.13,SW,218,4.0,5.0,98,0.00,,,0.02,weatherlink.com 1.10,2013-01-13 14:34:00,
2013-01-13 09:49:00,47.1,47.0,30.13,WSW,245,3.0,4.0,98,0.00,,,0.02,weatherlink.com 1.10,2013-01-13 14:49:00,
2013-01-13 10:04:00,47.7,47.0,30.12,SE,143,1.0,5.0,98,0.00,,,0.02,weatherlink.com 1.10,2013-01-13 15:04:00,
2013-01-13 10:19:00,48.3,48.0,30.11,South,174,1.0,6.0,98,0.00,,,0.02,weatherlink.com 1.10,2013-01-13 15:19:00,
2013-01-13 10:34:00,48.6,48.0,30.12,SSW,211,4.0,8.0,98,0.00,,,0.02,weatherlink.com 1.10,2013-01-13 15:34:00,
2013-01-13 10:49:00,48.9,48.0,30.12,SW,225,3.0,7.0,98,0.00,,,0.02,weatherlink.com 1.10,2013-01-13 15:49:00,
2013-01-13 11:04:00,49.2,49.0,30.12,SSW,201,1.0,5.0,98,0.00,,,0.02,weatherlink.com 1.10,2013-01-13 16:04:00,
2013-01-13 11:19:00,49.2,49.0,30.11,SW,233,2.0,7.0,98,0.00,,,0.02,weatherlink.com 1.10,2013-01-13 16:19:00,
2013-01-13 11:34:00,49.6,49.0,30.12,SSE,160,1.0,7.0,98,0.00,,,0.02,weatherlink.com 1.10,2013-01-13 16:34:00,
2013-01-13 11:49:00,49.8,49.0,30.11,West,264,3.0,8.0,98,0.00,,,0.02,weatherlink.com 1.10,2013-01-13 16:49:00,
2013-01-13 12:04:00,50.2,50.0,30.10,SSW,200,2.0,5.0,98,0.00,,,0.02,weatherlink.com 1.10,2013-01-13 17:04:00,
2013-01-13 12:19:00,50.0,50.0,30.10,SSW,208,4.0,5.0,98,0.00,,,0.02,weatherlink.com 1.10,2013-01-13 17:19:00,
2013-01-13 12:34:00,49.8,49.0,30.09,SW,222,0.0,5.0,98,0.00,,,0.02,weatherlink.com 1.10,2013-01-13 17:34:00,
2013-01-13 12:49:00,49.7,49.0,30.08,WSW,250,0.0,6.0,98,0.00,,,0.02,weatherlink.com 1.10,2013-01-13 17:49:00,
2013-01-13 13:04:00,49.6,49.0,30.08,South,172,0.0,6.0,98,0.00,,,0.02,weatherlink.com 1.10,2013-01-13 18:04:00,
2013-01-13 13:19:00,49.7,49.0,30.07,SSW,212,6.0,8.0,98,0.00,,,0.02,weatherlink.com 1.10,2013-01-13 18:19:00,
2013-01-13 13:34:00,50.4,50.0,30.07,SW,235,2.0,6.0,98,0.00,,,0.02,weatherlink.com 1.10,2013-01-13 18:34:00,
2013-01-13 13:49:00,49.7,49.0,30.07,SSW,210,1.0,5.0,97,0.00,,,0.02,weatherlink.com 1.10,2013-01-13 18:49:00,
2013-01-13 14:04:00,50.4,50.0,30.07,South,188,1.0,6.0,98,0.00,,,0.02,weatherlink.com 1.10,2013-01-13 19:04:00,
2013-01-13 14:19:00,50.4,50.0,30.06,South,180,10.0,13.0,97,0.00,,,0.02,weatherlink.com 1.10,2013-01-13 19:19:00,
2013-01-13 14:34:00,48.6,48.0,30.07,SE,143,2.0,9.0,97,0.00,,,0.02,weatherlink.com 1.10,2013-01-13 19:34:00,
2013-01-13 14:49:00,47.9,47.0,30.07,South,172,3.0,7.0,97,0.00,,,0.02,weatherlink.com 1.10,2013-01-13 19:49:00,
2013-01-13 15:04:00,47.7,47.0,30.07,SSE,148,2.0,5.0,98,0.00,,,0.02,weatherlink.com 1.10,2013-01-13 20:04:00,
2013-01-13 15:19:00,48.5,48.0,30.07,SSE,163,5.0,8.0,98,0.00,,,0.02,weatherlink.com 1.10,2013-01-13 20:19:00,
2013-01-13 15:34:00,49.1,49.0,30.07,SSW,213,7.0,8.0,98,0.00,,,0.02,weatherlink.com 1.10,2013-01-13 20:34:00,
2013-01-13 15:49:00,49.0,49.0,30.06,ESE,115,0.0,9.0,98,0.00,,,0.02,weatherlink.com 1.10,2013-01-13 20:49:00,
2013-01-13 16:04:00,49.1,49.0,30.06,SSW,192,3.0,8.0,98,0.00,,,0.02,weatherlink.com 1.10,2013-01-13 21:04:00,
2013-01-13 16:19:00,48.6,48.0,30.05,South,183,5.0,9.0,97,0.00,,,0.02,weatherlink.com 1.10,2013-01-13 21:19:00,
2013-01-13 16:34:00,48.3,48.0,30.05,SSW,193,2.0,8.0,98,0.00,,,0.02,weatherlink.com 1.10,2013-01-13 21:34:00,
2013-01-13 16:49:00,48.3,48.0,30.05,SSW,192,2.0,5.0,98,0.00,,,0.02,weatherlink.com 1.10,2013-01-13 21:49:00,
2013-01-13 17:04:00,48.0,48.0,30.06,ESE,116,1.0,6.0,98,0.00,,,0.02,weatherlink.com 1.10,2013-01-13 22:04:00,
2013-01-13 17:19:00,47.9,47.0,30.04,SSE,167,1.0,6.0,98,0.00,,,0.02,weatherlink.com 1.10,2013-01-13 22:19:00,
2013-01-13 17:34:00,47.9,47.0,30.04,SSE,156,3.0,5.0,98,0.00,,,0.02,weatherlink.com 1.10,2013-01-13 22:34:00,
2013-01-13 17:49:00,47.7,47.0,30.04,South,184,1.0,5.0,98,0.00,,,0.02,weatherlink.com 1.10,2013-01-13 22:49:00,
2013-01-13 18:04:00,48.1,48.0,30.03,South,191,3.0,8.0,98,0.00,,,0.02,weatherlink.com 1.10,2013-01-13 23:04:00,
2013-01-13 18:19:00,48.6,48.0,30.04,South,172,4.0,7.0,98,0.00,,,0.02,weatherlink.com 1.10,2013-01-13 23:19:00,
2013-01-13 18:34:00,48.7,48.0,30.03,SSE,167,5.0,8.0,98,0.00,,,0.02,weatherlink.com 1.10,2013-01-13 23:34:00,
2013-01-13 18:49:00,48.8,48.0,30.03,SSE,168,2.0,9.0,98,0.00,,,0.02,weatherlink.com 1.10,2013-01-13 23:49:00,
2013-01-13 19:04:00,48.6,48.0,30.03,SSE,151,1.0,9.0,98,0.00,,,0.02,weatherlink.com 1.10,2013-01-14 00:04:00,
2013-01-13 19:19:00,48.3,48.0,30.02,SSW,207,3.0,8.0,98,0.00,,,0.02,weatherlink.com 1.10,2013-01-14 00:19:00,
2013-01-13 19:34:00,48.2,48.0,30.02,SSE,165,5.0,9.0,98,0.00,,,0.02,weatherlink.com 1.10,2013-01-14 00:34:00,
2013-01-13 19:49:00,47.9,47.0,30.03,SSE,164,2.0,8.0,98,0.00,,,0.02,weatherlink.com 1.10,2013-01-14 00:49:00,
2013-01-13 20:04:00,47.3,47.0,30.03,SE,141,1.0,6.0,98,0.00,,,0.02,weatherlink.com 1.10,2013-01-14 01:04:00,
2013-01-13 20:19:00,47.6,47.0,30.00,SSE,150,6.0,9.0,98,0.00,,,0.02,weatherlink.com 1.10,2013-01-14 01:19:00,
2013-01-13 20:34:00,48.4,48.0,30.01,SSW,212,7.0,9.0,98,0.00,,,0.02,weatherlink.com 1.10,2013-01-14 01:34:00,
2013-01-13 20:49:00,48.2,48.0,30.02,SW,217,3.0,9.0,98,0.00,,,0.02,weatherlink.com 1.10,2013-01-14 01:49:00,
2013-01-13 21:04:00,47.6,47.0,30.02,South,170,1.0,8.0,98,0.00,,,0.02,weatherlink.com 1.10,2013-01-14 02:04:00,
2013-01-13 21:19:00,47.5,47.0,30.00,South,190,2.0,10.0,98,0.01,,,0.03,weatherlink.com 1.10,2013-01-14 02:19:00,
2013-01-13 21:34:00,47.5,47.0,30.01,West,269,1.0,5.0,98,0.01,,,0.03,weatherlink.com 1.10,2013-01-14 02:34:00,
2013-01-13 21:49:00,47.8,47.0,30.01,South,181,5.0,7.0,98,0.01,,,0.03,weatherlink.com 1.10,2013-01-14 02:49:00,
2013-01-13 22:04:00,48.0,48.0,30.02,SE,126,2.0,6.0,98,0.01,,,0.03,weatherlink.com 1.10,2013-01-14 03:04:00,
2013-01-13 22:20:00,48.4,48.0,30.01,SSW,207,1.0,5.0,98,0.00,,,0.03,weatherlink.com 1.10,2013-01-14 03:20:00,
2013-01-13 22:35:00,48.8,48.0,30.02,SSE,162,3.0,5.0,98,0.00,,,0.03,weatherlink.com 1.10,2013-01-14 03:35:00,
2013-01-13 22:50:00,49.0,49.0,30.02,SW,217,1.0,7.0,99,0.00,,,0.03,weatherlink.com 1.10,2013-01-14 03:50:00,
2013-01-13 23:05:00,49.7,50.0,30.00,WSW,240,5.0,6.0,99,0.00,,,0.03,weatherlink.com 1.10,2013-01-14 04:05:00,
2013-01-13 23:20:00,49.4,49.0,30.00,SSE,153,2.0,5.0,99,0.00,,,0.03,weatherlink.com 1.10,2013-01-14 04:20:00,
2013-01-13 23:35:00,49.3,49.0,30.02,SW,224,0.0,6.0,98,0.00,,,0.03,weatherlink.com 1.10,2013-01-14 04:35:00,
2013-01-13 23:50:00,49.5,49.0,30.01,WSW,242,0.0,5.0,98,0.00,,,0.03,weatherlink.com 1.10,2013-01-14 04:50:00,